Location: Medoc Mountain State Park
(36.2578°N, 77.8786°W)
Time: 21:56:22
(UTC-05:00)

Daily predictions for brighter satellites

Satellite Brightness Start Highest point End
(mag) Time Altitude Azimuth Time Altitude Azimuth Time Altitude Azimuth
Cosmos 540 Rocket 3.9 17:47:43 10° SSW 17:52:50 66° WNW 17:57:59 10° NNE
CORIOLIS 4.2 17:50:57 10° SSE 17:56:18 90° ENE 18:01:41 10° NNW
Cosmos 1515 Rocket 4.5 17:55:37 10° NNW 17:59:59 55° W 18:04:17 10° S
USA 215 4.3 17:54:56 10° ENE 18:00:04 25° NNE 18:05:12 10° NNW
Cosmos 2058 2.8 17:56:01 10° S 18:00:05 76° E 18:04:11 10° N
Cosmos 1805 Rocket 3.9 17:59:28 10° SSE 18:03:44 47° E 18:08:01 10° NNE
Cosmos 1461 3.0 18:02:24 10° SSW 18:06:37 78° WNW 18:10:43 10° NNE
SKYMED 2 3.6 18:04:37 10° NNE 18:08:57 66° E 18:13:15 10° S
Meteor 1-11 4.4 18:06:49 10° S 18:12:30 82° W 18:18:17 10° N
Cosmos 1626 2.5 18:09:22 10° SSE 18:12:54 42° E 18:16:27 10° NNE
Cosmos 2180 Rocket 4.5 18:08:08 10° N 18:14:15 62° E 18:20:25 10° SSE
Aureole 1 Rocket 4.3 18:10:06 10° SSE 18:14:55 39° E 18:21:08 10° NNE
Sich 1 3.5 18:12:38 10° SSE 18:16:48 41° E 18:20:58 10° NNE
Cosmos 2219 Rocket 4.3 18:13:47 10° WSW 18:18:12 23° WNW 18:22:39 10° N
CZ-2C R/B 4.1 18:14:10 10° SSW 18:18:45 37° W 18:23:13 10° NNW
Cosmos 1356 Rocket 3.4 18:16:15 10° S 18:20:08 54° E 18:24:03 10° NNE
Lacrosse 5 rocket 1.6 18:17:57 10° NW 18:21:45 65° SW 18:25:45 10° SSE
ALOS 3.6 18:20:04 10° ESE 18:23:15 18° ENE 18:26:26 10° NNE
Cosmos 2333 Rocket 4.2 18:20:19 10° WSW 18:24:59 26° WNW 18:29:42 10° N
Cosmos 1603 4.3 18:20:32 10° SSE 18:25:31 34° ESE 18:30:06 12° NE
Cosmos 1633 Rocket 3.3 18:22:54 10° SSE 18:27:07 47° E 18:31:21 10° NNE
Cosmos 1726 4.2 18:26:24 10° NNW 18:29:45 31° W 18:33:06 10° SSW
Cosmos 292 Rocket 4.5 18:28:25 10° SSE 18:32:36 32° E 18:35:32 17° NE
Coronas F rocket 1.5 18:31:06 10° SSE 18:33:20 36° E 18:33:36 34° ENE
Cosmos 2278 Rocket 3.6 18:29:49 10° NW 18:35:08 42° WSW 18:40:25 10° S
Cosmos 1455 2.2 18:33:47 10° N 18:37:30 52° E 18:41:15 10° SSE
FAST Rocket 3.8 18:35:04 10° S 18:37:42 87° W 18:40:29 10° N
USA 229 DEB 3.7 18:33:49 10° SSW 18:40:37 73° ESE 18:47:09 12° NE
USA 229 3.7 18:33:55 10° SSW 18:40:42 72° ESE 18:47:12 12° NE
Cosmos 1703 4.1 18:39:57 10° SSW 18:43:45 50° W 18:47:33 10° N
Cosmos 1184 Rocket 2.7 18:41:52 10° S 18:45:12 88° W 18:48:33 10° N
SJ-6B 2.9 18:43:35 10° SSE 18:47:35 55° ENE 18:51:38 10° N
Spot 2 Rocket 4.1 18:43:51 10° SE 18:48:15 31° ENE 18:52:39 10° N
Iridium 4 Rocket 3.1 18:47:34 10° SSE 18:51:58 52° E 18:56:06 10° NNE
NOSS 3-1 (A) 4.4 18:50:37 10° SSE 18:54:50 22° ESE 18:54:50 22° ESE
Cosmos 1707 Rocket 3.9 18:51:10 10° NNW 18:55:28 66° W 18:59:46 10° S
SL-19 R/B 4.5 18:50:01 10° SE 18:55:38 49° ENE 19:01:02 10° N
COSMO-SKYMED 1 4.3 18:52:59 10° N 18:56:53 33° WNW 19:00:46 10° SW
Cosmos 2369 Rocket 3.7 18:58:34 10° N 19:01:00 18° NNE 19:01:00 18° NNE
Cosmos 1666 Rocket 4.5 18:59:03 10° SSW 19:03:15 49° W 19:07:30 10° N
SL-16 R/B 3.6 18:59:28 10° SW 19:04:40 37° WNW 19:09:54 10° N
H-2A ROCKET BODY 3.6 18:39:25 10° WSW 19:05:38 55° S 19:09:18 25° ESE
FREGAT/IRIS 2.7 19:03:13 10° S 19:06:14 77° WSW 19:09:18 10° NNW
Haruka 4.2 19:04:12 10° WSW 19:08:38 61° S 19:16:07 24° ESE
Resurs 01 Rocket 1.6 19:08:24 10° SSE 19:12:45 54° ENE 19:17:05 10° N
Cosmos 923 Rocket 4.0 19:07:57 10° SSW 19:13:09 84° WNW 19:16:59 19° NNE
Cosmos 1933 Rocket 3.4 19:10:19 10° S 19:14:44 75° E 19:16:31 36° NNE
Cosmos 1680 Rocket 3.4 19:14:22 10° SSW 19:19:34 84° ESE 19:22:05 32° NNE
Cosmos 1655 Rocket 4.1 19:14:53 10° SSE 19:21:02 52° E 19:24:06 29° NNE
Cosmos 1627 Rocket 4.3 19:17:15 10° S 19:23:24 73° E 19:29:31 10° N
Lacrosse 4 Rocket 1.3 19:21:28 10° NNW 19:25:17 78° NW 19:25:17 78° NW
Genesis I 4.5 19:24:35 10° SSW 19:26:49 31° S 19:26:49 31° S
FENGYUN 3A 3.5 19:23:43 10° SSE 19:29:05 85° ENE 19:34:29 10° NNW
Tiangong 1 3.1 19:27:10 10° WSW 19:28:39 26° WSW 19:28:39 26° WSW
Cosmos 1869 4.2 19:27:53 10° NNW 19:31:48 49° W 19:35:41 10° SSW
NOSS 3-1 (C) 3.2 19:26:41 10° SSW 19:32:17 65° ESE 19:32:51 61° E
Cosmos 1470 Rocket 4.2 19:32:03 10° SSW 19:36:18 53° W 19:38:13 30° NNW
Cosmos 1943 3.1 19:36:44 10° SSW 19:41:55 69° SE 19:41:55 69° SE
USA 215 3.1 19:40:52 56° ESE 19:42:21 76° NE 19:48:55 10° NW
Cosmos 2026 Rocket 4.0 19:44:19 10° S 19:50:32 75° W 19:55:59 14° N
ATLAS 5 CENTAUR R/B 4.4 19:46:19 10° N 19:47:23 14° N 19:47:23 14° N
ATLAS 2A CENTAUR R/B 4.0 19:50:49 10° SSW 19:51:15 13° SSW 19:51:15 13° SSW
ALOS 3.5 19:56:00 10° SSW 20:00:21 39° W 20:04:44 10° NNW
